When you browse on this site, cookies collect data to enhance your experience and personalize the content and advertising you see.
Visit our Privacy Policy to learn more. By continuing to use the site, you agree to this use of cookies and data.
  • In Romania
  • List of Countries
  • For 7 days
  • Water Temperature
  • Satellite Maps
  • Weather Map
  • Weather Widgets
  • user-avatar
    Login

    Hourly Weather Fedkovo

    Today, 23 July, Tuesday

    Time Temperature Precipitation Wind Pressure Humidity
    00:00 +16°C° 0 mm 1 mps 743 mmHg 88%
    01:00 +16°C° 0 mm 1 mps 743 mmHg 89%
    02:00 +15°C° 0 mm 1 mps 743 mmHg 94%
    03:00 +16°C° 0.1 mm 1 mps 742 mmHg 93%
    04:00 +16°C° 0.1 mm 1 mps 742 mmHg 92%
    05:00 +16°C° 0.1 mm 1 mps 742 mmHg 91%
    06:00 +18°C° 0.1 mm 1 mps 742 mmHg 87%
    07:00 +19°C° 0.1 mm 1 mps 742 mmHg 82%
    08:00 +20°C° 0.1 mm 2 mps 742 mmHg 78%
    09:00 +21°C° 0.2 mm 2 mps 742 mmHg 74%
    10:00 +23°C° 0.2 mm 2 mps 742 mmHg 70%
    11:00 +23°C° 0.2 mm 2 mps 742 mmHg 65%
    12:00 +24°C° 0.3 mm 2 mps 742 mmHg 65%
    13:00 +24°C° 0.3 mm 2 mps 742 mmHg 65%
    14:00 +24°C° 0.3 mm 2 mps 742 mmHg 65%
    15:00 +24°C° 0.1 mm 3 mps 742 mmHg 65%
    16:00 +24°C° 0.1 mm 3 mps 742 mmHg 65%
    17:00 +24°C° 0.1 mm 3 mps 742 mmHg 65%
    18:00 +21°C° 0.1 mm 3 mps 742 mmHg 72%
    19:00 +19°C° 0.1 mm 2 mps 742 mmHg 79%
    20:00 +18°C° 0.1 mm 2 mps 742 mmHg 86%
    21:00 +17°C° 0 mm 2 mps 742 mmHg 88%
    22:00 +16°C° 0 mm 2 mps 742 mmHg 89%
    23:00 +15°C° 0 mm 2 mps 742 mmHg 90%

    Tomorrow, 24 July, Wednesday

    Time Temperature Precipitation Wind Pressure Humidity
    00:00 +15°C° 0 mm 2 mps 742 mmHg 90%
    01:00 +14°C° 0 mm 2 mps 742 mmHg 89%
    02:00 +14°C° 0 mm 2 mps 742 mmHg 89%
    03:00 +14°C° 0 mm 2 mps 743 mmHg 89%
    04:00 +14°C° 0 mm 2 mps 743 mmHg 89%
    05:00 +14°C° 0 mm 2 mps 743 mmHg 88%
    06:00 +16°C° 0 mm 2 mps 743 mmHg 80%
    07:00 +17°C° 0 mm 2 mps 743 mmHg 72%
    08:00 +19°C° 0 mm 3 mps 743 mmHg 64%
    09:00 +20°C° 0 mm 3 mps 743 mmHg 60%
    10:00 +21°C° 0 mm 3 mps 744 mmHg 55%
    11:00 +23°C° 0 mm 4 mps 744 mmHg 50%
    12:00 +23°C° 0 mm 4 mps 744 mmHg 50%
    13:00 +23°C° 0 mm 4 mps 744 mmHg 49%
    14:00 +25°C° 0 mm 5 mps 744 mmHg 49%
    15:00 +23°C° 0 mm 5 mps 744 mmHg 51%
    16:00 +22°C° 0 mm 5 mps 744 mmHg 53%
    17:00 +22°C° 0 mm 5 mps 744 mmHg 56%
    18:00 +20°C° 0 mm 4 mps 744 mmHg 64%
    19:00 +18°C° 0 mm 3 mps 744 mmHg 73%
    20:00 +17°C° 0 mm 2 mps 744 mmHg 81%
    21:00 +16°C° 0 mm 1 mps 744 mmHg 84%
    22:00 +15°C° 0 mm 1 mps 744 mmHg 87%
    23:00 +14°C° 0 mm 1 mps 744 mmHg 89%

    Day after tomorrow, 25 July, Thursday

    Time Temperature Precipitation Wind Pressure Humidity
    00:00 +15°C° 0 mm 1 mps 744 mmHg 88%
    01:00 +15°C° 0 mm 1 mps 744 mmHg 86%
    02:00 +15°C° 0 mm 1 mps 744 mmHg 85%
    03:00 +15°C° 0 mm 1 mps 744 mmHg 86%
    04:00 +14°C° 0 mm 1 mps 744 mmHg 88%
    05:00 +14°C° 0 mm 1 mps 744 mmHg 89%
    06:00 +15°C° 0 mm 2 mps 744 mmHg 83%
    07:00 +17°C° 0 mm 2 mps 744 mmHg 76%
    08:00 +18°C° 0 mm 2 mps 744 mmHg 69%
    09:00 +19°C° 0 mm 2 mps 744 mmHg 65%
    10:00 +20°C° 0 mm 3 mps 744 mmHg 62%
    11:00 +21°C° 0 mm 3 mps 744 mmHg 58%
    12:00 +21°C° 0.2 mm 3 mps 744 mmHg 63%
    13:00 +21°C° 0.2 mm 3 mps 744 mmHg 68%
    14:00 +20°C° 0.2 mm 3 mps 744 mmHg 73%
    15:00 +19°C° 0.3 mm 3 mps 744 mmHg 79%
    16:00 +18°C° 0.3 mm 2 mps 744 mmHg 85%
    17:00 +17°C° 0.3 mm 2 mps 744 mmHg 90%
    18:00 +17°C° 0 mm 2 mps 744 mmHg 93%
    19:00 +16°C° 0 mm 2 mps 744 mmHg 95%
    20:00 +15°C° 0 mm 2 mps 744 mmHg 97%
    21:00 +15°C° 0 mm 2 mps 744 mmHg 97%
    22:00 +15°C° 0 mm 2 mps 744 mmHg 98%
    23:00 +14°C° 0 mm 2 mps 745 mmHg 98%

    26 July, Friday

    Time Temperature Precipitation Wind Pressure Humidity
    00:00 +15°C° 0 mm 2 mps 745 mmHg 98%
    01:00 +15°C° 0 mm 2 mps 745 mmHg 98%
    02:00 +15°C° 0 mm 2 mps 745 mmHg 98%
    03:00 +15°C° 0 mm 2 mps 745 mmHg 98%
    04:00 +16°C° 0 mm 3 mps 746 mmHg 98%
    05:00 +16°C° 0 mm 3 mps 746 mmHg 98%
    06:00 +17°C° 0 mm 3 mps 746 mmHg 94%
    07:00 +18°C° 0 mm 3 mps 746 mmHg 91%
    08:00 +19°C° 0 mm 3 mps 746 mmHg 87%
    09:00 +21°C° 0 mm 3 mps 746 mmHg 80%
    10:00 +22°C° 0 mm 3 mps 747 mmHg 73%
    11:00 +25°C° 0 mm 3 mps 747 mmHg 66%
    12:00 +25°C° 0.4 mm 3 mps 746 mmHg 66%
    13:00 +26°C° 0.4 mm 3 mps 746 mmHg 66%
    14:00 +26°C° 0.4 mm 4 mps 746 mmHg 66%
    15:00 +26°C° 0.5 mm 3 mps 746 mmHg 72%
    16:00 +26°C° 0.5 mm 3 mps 746 mmHg 77%
    17:00 +25°C° 0.5 mm 3 mps 745 mmHg 83%
    18:00 +24°C° 0.2 mm 2 mps 746 mmHg 86%
    19:00 +23°C° 0.2 mm 2 mps 746 mmHg 90%
    20:00 +20°C° 0.2 mm 2 mps 746 mmHg 93%
    21:00 +20°C° 0 mm 2 mps 746 mmHg 94%
    22:00 +19°C° 0 mm 2 mps 746 mmHg 95%
    23:00 +19°C° 0 mm 2 mps 746 mmHg 97%

    27 July, Saturday

    Time Temperature Precipitation Wind Pressure Humidity
    00:00 +18°C° 0 mm 2 mps 746 mmHg 97%
    01:00 +18°C° 0 mm 2 mps 746 mmHg 97%
    02:00 +17°C° 0 mm 2 mps 745 mmHg 97%
    03:00 +17°C° 0 mm 2 mps 745 mmHg 97%
    04:00 +17°C° 0 mm 2 mps 745 mmHg 96%
    05:00 +18°C° 0 mm 2 mps 745 mmHg 96%
    06:00 +19°C° 0 mm 3 mps 745 mmHg 90%
    07:00 +21°C° 0 mm 3 mps 745 mmHg 83%
    08:00 +22°C° 0 mm 3 mps 745 mmHg 77%
    09:00 +25°C° 0 mm 4 mps 745 mmHg 68%
    10:00 +27°C° 0 mm 4 mps 745 mmHg 59%
    11:00 +28°C° 0 mm 4 mps 745 mmHg 50%
    12:00 +29°C° 0 mm 4 mps 745 mmHg 49%
    13:00 +29°C° 0 mm 4 mps 744 mmHg 48%
    14:00 +29°C° 0 mm 4 mps 744 mmHg 47%
    15:00 +29°C° 0 mm 4 mps 744 mmHg 52%
    16:00 +28°C° 0 mm 3 mps 743 mmHg 57%
    17:00 +27°C° 0 mm 3 mps 743 mmHg 62%
    18:00 +25°C° 0.1 mm 3 mps 743 mmHg 69%
    19:00 +24°C° 0.1 mm 2 mps 743 mmHg 76%
    20:00 +21°C° 0.1 mm 2 mps 743 mmHg 84%
    21:00 +20°C° 0 mm 2 mps 743 mmHg 86%
    22:00 +20°C° 0 mm 2 mps 743 mmHg 88%
    23:00 +19°C° 0 mm 2 mps 743 mmHg 90%

    28 July, Sunday

    Time Temperature Precipitation Wind Pressure Humidity
    00:00 +19°C° 0 mm 2 mps 743 mmHg 92%
    01:00 +18°C° 0 mm 2 mps 743 mmHg 94%
    02:00 +18°C° 0 mm 3 mps 743 mmHg 95%
    03:00 +18°C° 0 mm 3 mps 743 mmHg 94%
    04:00 +17°C° 0 mm 3 mps 743 mmHg 93%
    05:00 +17°C° 0 mm 3 mps 743 mmHg 91%
    06:00 +18°C° 0 mm 3 mps 743 mmHg 85%
    07:00 +18°C° 0 mm 4 mps 743 mmHg 79%
    08:00 +19°C° 0 mm 4 mps 743 mmHg 73%
    09:00 +19°C° 0 mm 4 mps 743 mmHg 69%
    10:00 +19°C° 0 mm 4 mps 743 mmHg 65%
    11:00 +20°C° 0 mm 4 mps 743 mmHg 61%
    12:00 +20°C° 0 mm 4 mps 743 mmHg 57%
    13:00 +21°C° 0 mm 4 mps 743 mmHg 53%
    14:00 +21°C° 0 mm 4 mps 743 mmHg 49%
    15:00 +20°C° 0 mm 4 mps 743 mmHg 49%
    16:00 +20°C° 0 mm 4 mps 743 mmHg 50%
    17:00 +19°C° 0 mm 4 mps 743 mmHg 50%
    18:00 +17°C° 0 mm 4 mps 743 mmHg 57%
    19:00 +16°C° 0 mm 3 mps 743 mmHg 64%
    20:00 +14°C° 0 mm 2 mps 743 mmHg 72%
    21:00 +13°C° 0 mm 2 mps 743 mmHg 75%
    22:00 +12°C° 0 mm 2 mps 744 mmHg 77%
    23:00 +10°C° 0 mm 2 mps 744 mmHg 80%
    Show more